Home   Weather   Gaborone   Past weeks

Flag for Botswana Past Weather in Gaborone, Botswana — Yesterday and Last 2 Weeks

Now
55 °F

Clear.


Feels Like: 55 °F
Forecast: 52 / 73 °F
Wind: 2 mph from East

Location: Seretse Khama International Airport

Current Time: Apr 24, 2017 at 5:33:30 am

Latest Report: Apr 24, 2017 at 5:00 am


Visibility: 3 mi

Pressure: 30.21 "Hg (26.78 "Hg at 1009m altitude)

Humidity: 100%

Dew Point: 55 °F

Location of GaboroneLocation

Past Weather in Gaborone — Graph

°F

Gaborone Temperature Yesterday

Maximum temperature yesterday: 68 °F (at 12:00 pm)
Minimum temperature yesterday: 59 °F (at 1:00 am)
Average temperature yesterday: 62 °F

High & Low Weather Summary for the Past Weeks

 TemperatureHumidityPressure
High82 °F (Apr 9, 2:00 pm)100% (Apr 9, 5:00 am)30.27 "Hg (Apr 9, 5:00 am)
Low48 °F (Apr 21, 5:00 am)16% (Apr 21, 4:00 pm)29.98 "Hg (Apr 12, 4:00 pm)
Average68 °F70%30.14 "Hg
* Reported Apr 9 5:00 am — Apr 24 4:00 am, Gaborone, Weather by CustomWeather, © 2017

Note: Actual official high and low records may vary slightly from our data, if they occured in-between our weather recording intervals... More about our weather records

Advertising

Gaborone Weather History for the Previous 24 Hours

Scroll right to see more
 ConditionsComfort  
Time TempWeatherWind HumidityBarometerVisibility
4:00 am
Mon, Apr 24
57 °FClear.1 mph100%30.18 "Hg5 mi
2:00 am57 °FClear.1 mph100%30.21 "Hg5 mi
1:00 am57 °FClear.2 mph100%30.21 "Hg5 mi
12:00 am59 °FClear.3 mph94%30.21 "Hg10 mi
9:00 pm
Sun, Apr 23
59 °FPassing clouds.1 mph94%30.21 "HgN/A
8:00 pm59 °FPassing clouds.2 mph94%30.21 "HgN/A
7:00 pm61 °FPassing clouds.7 mph94%30.21 "HgN/A
6:00 pm61 °FPassing clouds.1 mph94%30.18 "HgN/A
5:00 pm63 °FPartly sunny.5 mph83%30.18 "HgN/A
4:00 pm63 °FPartly sunny.5 mph83%30.15 "HgN/A
3:00 pm64 °FPartly sunny.5 mph73%30.15 "HgN/A
2:00 pm64 °FLight rain. Partly sunny.6 mph78%30.18 "HgN/A
1:00 pm64 °FBroken clouds.6 mph78%30.18 "HgN/A
12:00 pm68 °FLight rain. Broken clouds.7 mph64%30.21 "HgN/A
11:00 am66 °FPassing clouds.6 mph68%30.21 "HgN/A
10:00 am66 °FOvercast.6 mph64%30.24 "HgN/A
9:00 am63 °FOvercast.5 mph73%30.21 "HgN/A
8:00 am61 °FBroken clouds.1 mph100%30.21 "HgN/A
7:00 am59 °FOvercast.3 mph82%30.18 "Hg10 mi
6:00 am59 °FClear.2 mph88%30.18 "Hg10 mi
5:00 am61 °FClear.3 mph83%30.15 "Hg10 mi
Weather by CustomWeather, © 2017

See weather overviewHow to use our weather pages